Flag for Bolivia Weather past 2 weeks in Tarija, Bolivia

Now
68 °F

Thunderstorms. Mostly cloudy.


Feels Like: 68 °F
Forecast: 65 / 82 °F
Wind: No wind

Location: Tarija Airport

Current Time: Dec 27, 2014 at 9:48:21 PM

Latest Report: Dec 27, 2014 at 8:00 PM


Visibility: N/A

Pressure: 30.04 "Hg

Humidity: 94%

Dew point: 66 °F

Location of TarijaLocation

Historic Weather in Tarija — Graph

°F

Tarija temperature yesterday

Maximum temperature yesterday: 88 °F (at 1:00 PM)
Minimum temperature yesterday: 59 °F (at 6:00 AM)
Average temperature yesterday: 76 °F

Past Weeks' High & Low Weather Summary

 TemperatureHumidityPressure
High93 °F (Dec 20, 1:00 PM)100% (Dec 17, 5:00 AM)30.36 "Hg (Dec 17, 5:00 AM)
Low50 °F (Dec 22, 9:00 PM)36% (Dec 20, 1:00 PM)29.65 "Hg (Dec 20, 2:00 PM)
Average71 °F67%30.02 "Hg
* Reported Dec 12 8:00 PM — Dec 27 8:00 PM, Tarija, Weather by CustomWeather, © 2014

Note: Actual official high and low records may vary slightly from our data, if they occured in-between our weather recording intervals... More about our weather records

Advertising

Tarija weather history for previous 24 hours

 ConditionsComfort  
Time TempWeatherWind HumidityBarometerVisibility
8:00 PM
Dec 27
68 °FThunderstorms. Mostly cloudy.No wind94%30.04 "HgN/A
7:00 PM70 °FPartly cloudy.9 mph88%30.01 "HgN/A
6:00 PM73 °FThunderstorms. Broken clouds.21 mph74%29.98 "HgN/A
5:00 PM79 °FThunderstorms. Broken clouds.18 mph61%29.92 "HgN/A
4:00 PM82 °FBroken clouds.16 mph55%29.92 "HgN/A
3:00 PM84 °FThunderstorms. Broken clouds.16 mph55%29.95 "HgN/A
2:00 PM88 °FBroken clouds.14 mph52%29.95 "HgN/A
1:00 PM88 °FScattered clouds.7 mph52%30.01 "HgN/A
12:00 PM86 °FScattered clouds.7 mph52%30.01 "HgN/A
11:00 AM82 °FPassing clouds.5 mph58%30.04 "HgN/A
10:00 AM81 °FPassing clouds.No wind58%30.07 "HgN/A
9:00 AM79 °FPassing clouds.No wind61%30.09 "HgN/A
8:00 AM73 °FPassing clouds.No wind74%30.09 "HgN/A
7:00 AM68 °FPassing clouds.No wind78%30.07 "HgN/A
6:00 AM63 °FPassing clouds.No wind88%30.04 "HgN/A
5:00 AM64 °FClear.No wind88%30.01 "HgN/A
11:00 PM
Dec 26
72 °FClear.No wind65%30.04 "HgN/A
10:00 PM73 °FPartly cloudy.No wind61%30.07 "HgN/A
9:00 PM75 °FPartly cloudy.6 mph57%30.07 "HgN/A
Weather by CustomWeather, © 2014

See weather overviewHow to use our weather pages